To NAV CANADA Home Page Login to a new session Search on AWWS site Feedback and Comments Disclaimer Vers la page française équivalente Tips FAQ What's new on the site To the Forecasts and Observations / NOTAM section To "File a Flight Plan" website Publications and other links Update of the User's profile FIC Telephone Numbers My Weather Data Folder Route Weather Data Regional Weather Data Local Weather Data To the Forecasts and Observations / NOTAM section
Request Generated 08/25/2016 at 09:38:40 UTC . Weather information available at that time is displayed.

METAR/TAF

LA GRANDE-4/QC    (show WxCam)

METAR CYAH 250900Z AUTO 00000KT 9SM OVC033 08/06 A2976 RMK SLP089=
METAR CYAH 250800Z AUTO 00000KT 9SM OVC033 08/06 A2976 RMK SLP089=
METAR CYAH 250700Z AUTO 20002KT 9SM OVC033 08/06 A2977 RMK SLP090=

*** REMARK        : Forecast period has ended; this was the last TAF issued
*** REMARQUE : La période de prévision est échue; ceci était le dernier TAF qui a été émis
TAF CYAH 241738Z 2418/2421 26015G25KT P6SM BKN050
BECMG 2419/2421 27012G22KT
RMK FCST BASED ON AUTO OBS. NXT FCST WILL BE ISSUED AT 251045Z=
Your time UTC time
Weather data provided by Environment Canada and NAV CANADA